Location: San Antonio
(29.4240°N, 98.4930°W)
Time: 07:27:55
(UTC-05:00)

Vanguard 1 - Visible Passes

Search period start: 19 July 2024 00:00
Search period end: 29 July 2024 00:00
Orbit: 650 x 3826 km, 34.3° (Epoch: 15 July)

Date Brightness Start Highest point End Pass type
(mag) Time Alt. Az. Time Alt. Az. Time Alt. Az.
19 Jul 13.2 02:06:44 31° SE 02:06:57 31° SE 02:25:13 10° E visible
19 Jul 12.8 04:19:19 35° SW 04:31:28 70° SSE 04:54:00 10° ENE visible
20 Jul 13.0 02:25:11 39° SE 02:26:40 40° SE 02:47:01 10° ENE visible
20 Jul 12.9 04:37:47 31° SW 04:52:00 80° SSE 05:14:36 10° ENE visible
21 Jul 13.9 00:31:02 10° ESE 00:31:02 10° ESE 00:31:33 10° ESE visible
21 Jul 12.7 02:43:37 47° SSE 02:46:30 49° SE 03:08:19 10° ENE visible
21 Jul 12.9 04:56:12 24° WSW 05:12:42 88° SSE 05:35:10 10° ENE visible
22 Jul 13.6 00:49:26 18° ESE 00:49:26 18° ESE 00:56:54 10° E visible
22 Jul 12.5 03:02:00 53° S 03:06:30 59° SE 03:29:19 10° ENE visible
22 Jul 13.0 05:14:35 18° WSW 05:33:36 86° NNW 05:55:45 10° ENE visible
23 Jul 13.3 01:07:46 26° ESE 01:07:46 26° ESE 01:19:53 10° E visible
23 Jul 12.5 03:20:21 53° SSW 03:26:41 70° SSE 03:50:09 10° ENE visible
23 Jul 13.0 05:32:56 12° W 05:54:37 81° NNW 06:16:21 10° ENE visible
24 Jul 13.0 01:26:06 35° ESE 01:26:06 35° ESE 01:41:53 10° ENE visible
24 Jul 12.5 03:38:41 47° SW 03:47:06 79° SSE 04:10:54 10° ENE visible
24 Jul 13.1 05:52:58 10° W 06:15:45 78° N 06:36:58 10° E visible
25 Jul 12.7 01:44:24 46° SE 01:44:24 46° SE 02:03:20 10° ENE visible
25 Jul 12.7 03:56:58 39° WSW 04:07:44 88° SSE 04:31:37 10° ENE visible
25 Jul 13.2 06:13:47 10° W 06:36:55 77° N 06:57:36 10° E visible
25 Jul 13.7 23:50:05 11° E 23:50:05 11° E 23:50:42 10° E visible
26 Jul 12.4 02:02:39 57° SE 02:02:39 57° SE 02:24:27 10° ENE visible
26 Jul 12.8 04:15:14 30° WSW 04:28:33 86° NNW 04:52:21 10° ENE visible
27 Jul 13.5 00:08:20 18° E 00:08:20 18° E 00:14:05 10° E visible
27 Jul 12.2 02:20:53 67° S 02:22:26 68° SSE 02:45:24 10° ENE visible
27 Jul 12.9 04:33:28 22° W 04:49:32 81° N 05:13:07 10° ENE visible
28 Jul 13.2 00:26:33 26° E 00:26:33 26° E 00:36:15 10° ENE visible
28 Jul 12.2 02:39:07 66° SSW 02:42:42 79° SSE 03:06:16 10° ENE visible
28 Jul 13.0 04:51:41 14° W 05:10:38 78° N 05:33:55 10° E visible
